Location: Sternwarte Stuttgart
(48.7670°N, 9.1830°E)
Time: 10:12:42
(UTC+02:00)

SKYMED 2 - Visible Passes

Search period start: 21 April 2019 00:00
Search period end: 01 May 2019 00:00
Orbit: 621 x 623 km, 97.9° (Epoch: 20 April)

Date Brightness Start Highest point End Pass type
(mag) Time Alt. Az. Time Alt. Az. Time Alt. Az.
22 Apr 7.0 21:04:23 10° NNW 21:07:08 17° WNW 21:09:52 10° W visible
23 Apr 7.2 04:52:42 10° E 04:54:24 12° ENE 04:56:07 10° NNE visible
23 Apr 7.4 21:23:22 10° NW 21:24:56 12° NW 21:26:30 10° WNW visible
24 Apr 6.9 05:09:25 10° E 05:12:13 17° ENE 05:15:01 10° NNE visible
25 Apr 6.4 05:26:36 10° ESE 05:30:03 24° ENE 05:33:33 10° N visible
28 Apr 7.5 04:47:26 10° ENE 04:48:29 11° NE 04:49:31 10° NE visible
28 Apr 7.3 21:16:56 10° NNW 21:18:59 13° WNW 21:21:03 10° W visible
29 Apr 7.0 05:03:45 10° E 05:06:16 15° ENE 05:08:46 10° NNE visible
30 Apr 6.7 05:20:49 10° ESE 05:24:05 21° ENE 05:27:22 10° NNE visible
